Location: D�rnast
(49.6426°N, 11.9755°E)
Time: 20:44:45
(UTC+00:00)

Cosmos 1328 - Pass Details

Date: 24 January 2021
Orbit: 528 x 555 km, 82.5° (Epoch: 01 March)

Event Time Altitude Azimuth Distance (km) Brightness Sun altitude
Rises 17:25:04 0° 170° (S) 2,713 7.4 -14.5°
Reaches altitude 10° 17:27:18 10° 164° (SSE) 1,821 6.4 -14.9°
Maximum altitude 17:31:05 41° 93° (E) 799 4.1 -15.5°
Enters shadow 17:33:33 19° 32° (NNE) 1,337 5.4 -15.8°
